This is the latest recevied weather packets stored in our database for station/object IU2EVW-3. If no packets are shown the sender has not sent any weather packets the latest 10 day(s).
| Time | Temp. | Humidity | Pressure | Rain* | Wind** | Luminosity | Snow |
|---|---|---|---|---|---|---|---|
| 1777914108 | 21.11° C | 36% | 1015.9 hPa | - | - | - | - |
| 1777912907 | 21.11° C | 35% | 1015.9 hPa | - | - | - | - |
| 1777911706 | 21.67° C | 34% | 1016 hPa | - | - | - | - |
| 1777910504 | 21.67° C | 34% | 1016 hPa | - | - | - | - |
| 1777909303 | 22.78° C | 34% | 1016 hPa | - | - | - | - |
| 1777908102 | 22.22° C | 34% | 1016.1 hPa | - | - | - | - |
| 1777906901 | 23.33° C | 32% | 1016.3 hPa | - | - | - | - |
| 1777905700 | 22.22° C | 33% | 1016.5 hPa | - | - | - | - |
| 1777904498 | 22.78° C | 32% | 1016.6 hPa | - | - | - | - |
| 1777903297 | 23.33° C | 32% | 1016.8 hPa | - | - | - | - |
| 1777902096 | 22.78° C | 32% | 1017 hPa | - | - | - | - |
| 1777900894 | 22.78° C | 33% | 1017.2 hPa | - | - | - | - |
| 1777899693 | 21.67° C | 34% | 1017.5 hPa | - | - | - | - |
| 1777898492 | 21.67° C | 35% | 1017.7 hPa | - | - | - | - |
| 1777897291 | 21.67° C | 34% | 1017.9 hPa | - | - | - | - |
| 1777896090 | 21.11° C | 34% | 1018 hPa | - | - | - | - |
| 1777894889 | 21.11° C | 33% | 1018.1 hPa | - | - | - | - |
| 1777893685 | 21.67° C | 32% | 1018.3 hPa | - | - | - | - |
| 1777892484 | 21.11° C | 33% | 1018.4 hPa | - | - | - | - |
| 1777891283 | 20.56° C | 34% | 1018.3 hPa | - | - | - | - |
| 1777890082 | 21.11° C | 32% | 1018.3 hPa | - | - | - | - |
| 1777888881 | 21.67° C | 33% | 1018.5 hPa | - | - | - | - |
| 1777887680 | 21.11° C | 33% | 1018.7 hPa | - | - | - | - |
| 1777886478 | 21.11° C | 32% | 1018.6 hPa | - | - | - | - |
| 1777885277 | 20.56° C | 32% | 1018.6 hPa | - | - | - | - |
* Rain since midnight (hover to see other rain measurements)
** Current wind speed in m/s (hover to see current wind gust speed)